Погода в Сен-Пьере

Реюньон     21°20′34″S   55°28′05″E
темп.,
°C
ветер,
м/с
пор.,
м/с
влажн.,
%
обл.,
%
осадки,
мм/ч
давл.,
гПа
погр.,
м
26 мая, чт
чт2601:00+17с11854 0.1 1021123
04:00+16с11770 0.1 102067
07:00+16св11720 0.0 102169
10:00+20ююз21570 0.0 1021582
13:00+21юз326819 0.0 1018803
16:00+19юз218126 0.1 1018404
19:00+18юв018723 0.1 1019179
22:00+17вюв01864 0.1 102056
27 мая, пт
пт2701:00+16ссв11840 0.0 101952
04:00+16ссв11760 0.0 101888
07:00+16ссв11620 0.0 101882
10:00+20ююз21480 0.0 1019440
13:00+21ююз32570 0.0 1017637
16:00+19ююз21670 0.0 1016407
19:00+17юв11770 0.0 101876
22:00+16всв11740 0.0 101882
28 мая, сб
сб2801:00+16всв118313 0.0 101884
04:00+16вюв128929 0.0 1018143
07:00+17юв359573 0.3 1019341
10:00+18ююв568468 0.6 1020664
13:00+19ююв568156 0.2 1019796
16:00+18ююв668370 0.4 1019704
19:00+16юв568680 0.2 1020573
22:00+16юв568464 0.4 1021463
29 мая, вс
вс2901:00+14вюв45815 0.1 1021305
04:00+14в457912 0.1 1021182
07:00+15вюв457933 0.2 1022358
10:00+18юв556928 0.3 1023957
13:00+19юв666636 0.1 1021856
16:00+17вюв656949 0.3 1021738
19:00+16вюв457532 0.1 1022349
22:00+15всв347718 0.1 1023174
30 мая, пн
пн3001:00+14всв337911 0.0 1023133
04:00+14св33779 0.0 1022116
07:00+14св338010 0.0 1023134
10:00+18юв226436 0.1 1023879
13:00+21ююв325424 0.0 10211218
16:00+20юв235717 0.1 1020693
19:00+16ссв22704 0.0 1022117
22:00+15с12731 0.0 1023146